Weather in Mirny

Russia / Altai Krai     52°33′25″N   80°09′51″E
temp.,
°C
wind,
m/s
gust,
m/s
humid.,
%
clouds,
%
prec.,
mm/h
press.,
hPa
HPBL,
m
23 april, fri
fri2301:00−1nne411592 0.0 1042300
04:00−2nne410710 0.0 1042256
07:00−2n410762 0.0 1043267
10:00+3nne69525 0.0 10431154
13:00+6nne6833100 0.0 10422465
16:00+8nne6831100 0.0 10402459
19:00+8nne672898 0.0 10392289
22:00+4nne37451 0.0 1040159
24 april, sat
sat2401:00+2nne38564 0.0 1039169
04:000nne36715 0.0 1038111
07:00−1nne36845 0.0 1038130
10:00+4n45605 0.0 1038864
13:00+8n4539100 0.1 10352048
16:00+9n4431100 0.0 10342312
19:00+9n443051 0.0 10332168
22:00+6nw34445 0.0 103464
25 april, sun
sun2501:00+4e115077 0.0 103311
04:00+3s225268 0.0 103316
07:00+2sse335191 0.0 103331
10:00+7sse3438100 0.0 1032444
13:00+10s4429100 0.0 10311661
16:00+12s3427100 0.0 10291868
19:00+11sse4428100 0.0 10291844
22:00+8se494192 0.0 1029229
26 april, mon
mon2601:00+6se495091 0.0 1028163
04:00+5se5115580 0.0 1027245
07:00+4se5106074 0.0 1027197
10:00+10sse683855 0.0 1026547
13:00+15sse5625100 0.0 10241189
16:00+18ssw6720100 0.0 10222459
19:00+17wsw5731100 0.0 10212157
22:00+13ssw4747100 0.0 1021125
27 april, tue
tue2701:00+14sw61352100 0.0 1020408
04:00+11wsw3568100 0.2 1021124
07:00+10wnw2369100 0.2 102268
10:00+13wnw3436100 0.0 1023547
13:00+15w3527100 0.0 10241383
16:00+17wsw3526100 0.0 10231619
19:00+17sw2430100 0.0 10211084
22:00+14sse334088 0.0 102053